Wind_Speed
28 23 21 21 20 18 18 16 16 17 18 20 25 27 29 31 31 32 31 30 31 34 37 34 37 38 41 42 41 46 46 42 38 42 42 39 38 35 36 36 23 31 35 36 33 35 36 33 36 43 35 26 28 31
30 27 25 22 21 18 17 16 16 16 18 18 22 25 28 29 30 31 31 30 30 32 33 34 37 38 39 38 38 44 44 39 40 39 41 41 40 37 30 26 32 31 30 29 31 31 38 41 42 35 33 34 33 30
32 29 26 22 21 19 17 16 15 16 16 18 20 24 28 28 29 29 30 29 29 30 31 33 35 36 38 39 41 42 44 45 45 41 38 37 41 39 36 27 30 31 39 37 34 34 39 42 40 38 36 34 31 33
35 31 27 22 22 21 19 17 16 16 16 18 18 22 26 28 28 28 27 27 27 27 28 31 31 33 35 37 40 43 44 41 38 36 39 39 38 40 35 30 31 42 36 34 38 41 42 33 41 36 36 34 36 35
36 32 29 25 22 22 20 18 18 16 15 17 17 21 24 27 28 27 26 24 25 25 25 26 26 29 32 34 37 40 42 41 41 40 42 41 40 44 44 46 34 34 41 27 32 43 48 46 27 35 38 36 37 35
36 33 30 27 24 23 22 20 18 18 15 17 18 22 23 26 28 27 25 23 21 21 23 24 24 25 28 31 34 37 38 39 41 42 43 42 45 46 45 43 45 44 44 48 47 45 43 44 41 42 43 41 39 36
36 36 33 29 27 25 25 22 21 20 16 17 18 21 25 26 27 26 23 23 20 20 20 20 21 21 23 25 28 31 34 34 37 39 43 44 46 49 48 47 48 48 51 50 47 45 44 46 41 40 40 44 44 40
38 38 36 32 30 26 26 25 22 21 18 17 18 20 26 26 27 25 23 22 20 20 18 16 16 15 17 20 22 25 28 30 33 35 38 41 43 47 45 44 45 46 49 50 48 47 48 48 48 46 39 45 45 41
45 41 36 33 31 29 28 26 23 21 18 18 18 21 25 27 27 25 23 21 20 18 16 15 11 10 13 16 16 18 22 25 27 29 34 37 39 44 43 43 42 46 49 50 47 45 46 46 47 48 48 50 45 42
46 44 40 36 32 31 29 26 25 22 19 19 19 21 26 29 27 24 23 22 19 18 17 16 13 6 10 12 12 12 13 17 22 25 28 32 33 35 37 38 39 43 45 45 44 43 46 49 52 51 49 49 47 47
41 37 37 34 33 32 29 27 26 22 20 20 20 23 27 31 28 25 24 22 20 18 16 15 13 14 14 13 12 11 13 14 15 17 17 17 18 26 26 32 29 29 35 37 39 42 43 45 46 45 50 46 46 43
36 33 34 34 33 32 30 29 25 20 18 19 20 26 28 31 27 25 24 22 20 18 16 13 11 13 14 14 15 12 13 9 11 14 17 17 20 16 23 23 26 29 31 33 34 35 36 39 41 43 47 43 46 42
39 33 34 34 32 34 32 28 25 20 20 20 24 27 28 30 26 24 23 22 21 18 17 15 13 11 12 13 15 17 14 13 16 16 17 21 20 21 24 27 28 28 28 30 31 32 33 36 37 38 38 41 37 36
38 36 35 36 34 36 32 28 23 21 21 22 26 27 28 28 26 25 24 22 21 21 18 13 11 11 13 14 13 13 13 12 11 11 16 16 18 21 21 21 19 20 22 24 26 28 32 33 34 36 40 38 41 35
38 33 35 36 38 34 31 26 23 23 23 25 29 27 28 28 26 22 20 21 22 19 16 14 13 13 12 12 12 11 12 12 12 15 16 15 14 14 17 18 20 23 26 28 31 31 32 31 32 33 35 37 42 37
36 35 36 38 36 34 26 23 24 25 24 27 27 28 28 25 22 21 20 21 19 17 16 14 14 12 14 15 13 14 12 16 15 15 11 13 15 18 22 24 25 25 25 22 23 25 26 25 26 27 26 28 38 37
37 34 37 36 34 27 23 24 26 25 27 27 26 26 26 24 23 20 18 20 18 16 15 13 13 13 15 15 15 16 16 17 14 11 12 14 20 22 18 18 17 15 12 14 15 14 18 20 20 19 29 19 33 40
35 36 35 32 26 23 24 26 26 25 28 26 26 25 24 23 19 17 19 15 14 13 12 11 10 10 13 13 14 13 13 10 9 9 13 17 16 17 11 9 8 8 7 7 8 10 13 14 13 15 17 13 20 22
36 33 29 26 25 25 27 26 26 27 25 25 25 25 24 24 20 17 16 14 13 13 13 12 9 10 10 11 8 9 9 8 10 12 9 8 8 5 3 2 3 4 4 3 0 0 2 7 8 10 9 11 11 11
27 25 27 28 29 28 26 29 29 25 24 25 26 26 24 21 16 14 14 13 13 11 11 10 10 8 9 7 8 8 7 10 9 6 4 2 5 7 9 9 5 5 3 4 4 5 7 5 5 7 5 6 8 9
27 28 29 31 30 30 30 29 26 26 25 27 25 22 19 18 17 15 13 12 11 11 8 8 10 10 9 7 6 6 7 8 1 5 6 9 11 12 13 16 15 12 8 3 3 3 4 2 6 7 8 9 11 11
30 31 31 30 29 29 25 24 24 22 23 23 21 20 18 16 15 15 13 13 12 9 10 10 10 9 5 5 4 2 2 6 6 2 3 14 13 11 9 11 16 12 15 14 9 7 8 6 5 6 6 5 6 10
32 30 28 28 27 25 23 22 21 22 21 21 20 18 18 17 15 14 14 13 11 11 10 12 9 5 5 3 4 12 11 8 4 10 11 15 15 11 8 4 7 8 7 6 7 7 9 6 5 6 5 4 3 3
26 25 26 25 24 21 21 21 22 21 20 19 18 17 15 15 15 14 13 12 12 12 13 10 4 3 1 9 18 14 14 9 11 10 8 16 11 13 3 2 5 10 15 17 17 16 15 13 12 11 11 11 10 10
24 23 22 21 20 20 21 20 20 19 18 17 17 17 15 14 13 14 14 14 15 14 10 7 5 6 16 20 18 16 12 7 8 8 7 7 6 8 11 15 15 13 13 13 12 11 9 8 6 6 5 4 4 4
21 21 20 20 19 20 20 19 18 17 17 17 15 13 12 15 15 15 16 15 13 11 8 8 13 17 16 17 14 11 13 16 17 16 14 14 14 14 12 11 9 8 7 6 5 4 4 3 2 1 0 2 5 6
19 19 19 19 18 18 17 17 18 16 14 14 15 15 15 15 14 13 12 13 16 21 23 21 19 17 17 19 19 19 16 14 15 15 13 10 9 8 6 4 2 3 4 4 3 2 2 1 1 2 4 6 7 5
17 17 17 16 16 16 15 14 14 15 16 16 16 14 15 19 23 24 26 27 25 23 22 22 24 25 23 20 18 16 14 12 10 9 6 4 3 1 2 3 5 6 7 7 8 8 7 7 8 7 8 10 9 8
16 15 15 15 15 15 16 17 16 16 18 20 24 26 28 29 29 29 28 26 24 24 23 23 21 19 18 16 14 11 9 6 5 3 2 2 3 5 7 8 10 11 12 13 12 12 11 11 10 9 9 11 12 12
16 18 19 19 18 18 17 17 19 20 21 23 23 24 25 24 23 23 22 20 19 19 19 18 16 14 11 9 8 6 4 2 2 4 6 8 10 11 12 13 14 15 15 15 13 12 12 11 10 10 10 11 12 13
19 20 20 20 20 19 18 18 19 19 21 21 21 19 19 20 19 18 17 18 18 16 13 11 9 7 6 5 2 0 3 5 6 7 7 7 8 8 8 9 9 9 7 6 6 7 8 9 9 10 10 11 13 15
21 21 20 18 18 19 19 20 21 21 22 21 19 19 18 17 17 17 16 15 13 11 9 7 6 4 4 3 4 6 7 8 7 6 7 6 6 7 7 7 6 4 3 3 4 5 6 7 9 10 12 14 17 18
17 16 16 17 20 21 22 22 22 22 20 18 18 16 13 12 11 10 10 9 8 7 6 5 5 5 6 8 7 7 8 7 7 6 6 6 7 7 7 5 4 4 4 4 5 7 8 10 12 14 16 16 16 17
Wind_Direction
261 271 275 287 280 265 268 274 275 265 255 250 238 229 223 222 225 225 225 225 226 228 230 227 229 230 228 230 231 233 234 231 229 229 230 230 231 233 237 233 237 257 249 247 246 245 244 244 235 231 248 247 244 259
257 260 266 279 279 270 264 269 262 267 259 253 239 233 222 220 222 225 225 225 227 229 231 229 229 229 230 229 232 236 239 237 232 230 229 230 230 229 226 236 229 227 248 249 249 246 244 241 247 249 251 251 254 260
251 250 257 268 272 268 261 270 262 254 262 251 241 233 224 216 219 223 225 226 227 228 230 230 229 230 230 231 233 236 235 234 231 231 238 235 229 226 230 240 221 231 240 244 247 254 253 252 247 254 253 251 253 259
244 244 249 257 264 266 259 265 261 254 256 249 241 229 225 216 215 218 222 224 226 227 230 229 231 232 233 232 233 235 237 235 236 236 236 232 227 222 212 223 231 231 241 241 246 248 246 232 249 251 251 250 250 252
239 242 244 248 256 263 258 258 259 248 250 247 238 226 222 215 211 213 218 221 222 224 230 234 233 235 237 236 235 235 236 234 232 231 231 231 232 233 229 225 219 223 225 226 220 241 249 246 260 256 258 255 255 254
236 239 242 244 248 257 257 254 255 244 244 245 235 222 219 213 208 208 213 216 217 221 225 233 233 237 238 238 237 236 235 233 232 230 230 231 232 234 234 233 224 219 233 237 237 245 249 256 253 251 252 256 258 254
238 239 240 243 243 251 254 249 251 245 240 243 234 221 215 211 206 204 205 209 213 214 219 231 234 234 235 235 234 234 234 232 231 229 229 230 231 233 235 236 239 237 241 246 247 248 252 252 260 260 258 258 256 256
242 240 240 241 240 246 248 244 247 242 234 237 231 221 211 207 203 201 202 206 207 209 215 227 236 228 235 233 233 232 232 231 230 229 229 230 231 237 238 237 239 241 244 244 245 247 247 250 253 256 264 259 256 256
243 242 240 236 237 241 240 237 239 235 230 232 227 219 207 201 199 198 199 202 204 206 209 210 208 237 233 234 236 235 232 230 228 226 227 230 230 236 238 237 236 240 242 246 248 248 252 254 257 255 245 257 263 259
244 240 238 236 236 234 231 228 228 227 227 228 223 216 202 197 197 198 197 198 201 201 204 209 205 196 210 220 219 217 222 227 231 230 228 231 233 238 241 241 238 242 247 249 249 249 248 248 250 254 254 255 256 259
239 234 228 226 224 222 219 217 218 219 223 223 218 207 196 195 197 196 195 195 196 196 200 206 212 215 221 221 221 227 230 226 227 226 227 234 232 235 236 240 242 241 244 249 250 251 251 250 252 256 255 255 254 254
222 224 216 213 212 210 206 207 210 212 220 215 208 199 193 194 196 196 194 194 194 192 196 204 203 212 218 213 217 208 222 207 220 224 227 229 231 232 251 244 241 242 245 247 249 250 251 251 250 249 253 253 252 251
207 207 206 203 201 200 196 200 199 208 209 205 199 191 190 193 195 195 194 196 194 194 200 207 214 219 216 210 211 210 226 223 234 241 246 244 251 248 248 250 252 252 253 253 254 255 257 256 253 252 250 248 246 242
190 196 197 194 194 190 190 192 196 200 199 195 192 185 189 188 193 195 195 195 196 202 205 210 220 221 220 218 222 224 228 236 243 241 242 248 253 248 252 254 251 249 253 258 262 264 266 267 264 258 251 245 243 229
186 188 188 183 185 180 180 186 192 192 192 189 182 182 184 189 192 191 193 199 204 206 212 221 220 224 221 221 229 229 227 238 237 240 243 247 252 250 254 266 272 272 266 269 260 269 268 260 263 262 256 249 240 235
172 173 171 172 170 169 173 182 186 185 184 181 181 181 183 184 184 188 193 201 205 210 219 223 224 230 222 226 233 236 234 229 234 245 248 250 256 274 279 280 280 278 277 276 269 264 257 257 252 253 257 255 240 228
157 160 160 159 162 163 172 180 180 180 179 172 173 180 180 184 184 187 192 202 203 209 209 210 213 224 228 222 221 229 229 230 235 245 263 275 277 281 284 284 283 273 264 272 271 267 254 253 248 233 225 192 218 215
153 148 150 156 157 164 172 174 172 173 171 172 175 175 177 179 177 185 194 199 197 202 205 207 207 209 203 214 229 227 222 219 242 262 278 284 304 319 288 252 241 238 251 279 260 255 250 258 224 222 226 202 206 228
142 145 147 154 160 166 165 164 165 164 169 172 175 177 176 172 174 190 183 185 190 197 198 198 209 219 215 224 222 215 219 249 275 293 288 297 316 342 334 285 220 206 200 214 216 205 29 90 167 192 190 205 212 216
140 147 152 154 156 155 161 158 160 164 172 175 176 176 176 180 179 168 180 186 189 195 199 213 228 197 200 193 198 212 248 271 276 287 269 123 60 67 71 74 105 151 176 175 170 185 78 70 128 144 177 202 199 208
144 145 147 150 152 152 156 159 164 167 168 167 169 171 173 174 176 175 177 182 186 185 201 187 167 173 174 181 206 256 272 300 119 99 133 112 120 110 69 72 80 69 36 158 151 160 214 232 183 187 200 210 212 223
139 139 143 147 150 150 150 152 153 154 158 159 164 168 169 171 171 176 179 178 176 180 177 170 160 151 165 224 231 287 141 135 111 115 147 142 137 119 101 74 66 65 59 86 116 102 153 136 160 183 190 182 200 216
135 138 141 144 145 144 144 145 148 151 154 157 160 163 167 169 175 179 177 177 179 178 170 156 145 172 236 249 164 142 136 132 107 133 139 134 139 141 131 52 53 45 49 77 114 113 118 129 114 139 169 172 185 172
131 133 136 138 138 139 143 147 149 152 155 157 159 159 164 167 172 176 181 181 176 170 163 164 175 204 288 144 137 122 118 122 139 151 122 128 137 143 116 94 52 78 89 88 93 96 95 96 100 104 110 110 110 111
127 129 132 135 139 142 143 145 146 147 149 152 154 157 165 166 171 173 174 169 162 157 159 160 150 122 118 133 134 139 139 129 128 123 131 146 127 110 108 106 105 102 96 91 87 87 89 89 92 99 108 114 119 123
121 126 129 133 135 136 137 139 143 144 147 154 155 146 150 150 149 155 157 157 155 155 159 154 145 143 134 137 137 129 119 118 109 102 104 105 107 109 107 104 101 96 85 71 62 48 37 26 9 351 311 162 151 146
120 124 127 129 132 133 136 137 144 152 155 149 145 147 145 144 144 142 151 156 149 140 133 130 130 129 129 126 121 118 120 115 112 111 109 108 101 97 97 88 52 11 350 335 334 333 322 293 261 238 216 197 194 211
116 119 121 126 129 134 140 143 145 141 141 145 149 150 149 145 136 131 128 129 128 129 131 131 130 125 124 124 121 119 115 115 114 110 107 100 85 38 336 317 307 302 304 306 303 295 283 277 279 274 251 227 234 250
114 119 124 129 132 135 133 131 131 136 136 131 130 130 124 127 125 129 129 129 126 128 129 128 129 127 125 126 124 125 124 118 110 100 74 17 337 318 308 303 299 297 296 295 290 279 275 273 272 269 255 246 254 268
113 121 124 128 130 127 126 127 127 128 128 129 135 134 131 129 131 131 131 130 130 128 129 129 129 130 132 130 129 126 119 88 351 324 311 304 300 300 300 298 294 291 287 284 282 279 278 278 278 275 270 271 276 281
122 123 124 127 126 127 128 128 131 129 131 131 129 128 127 127 129 131 134 136 137 136 139 140 137 140 142 143 141 358 319 312 310 310 311 312 313 317 320 323 322 319 310 300 293 290 286 282 280 280 280 282 285 289
124 123 124 127 129 131 132 132 130 132 133 134 133 132 130 130 131 131 134 135 141 150 155 161 169 181 197 235 275 295 306 314 310 305 311 324 337 343 348 353 352 354 3 334 311 302 296 293 291 291 291 293 295 297
126 135 133 131 135 132 135 139 140 144 144 143 142 139 139 143 151 155 160 163 169 178 191 205 223 246 270 281 285 291 295 292 288 297 309 318 327 336 340 339 335 343 344 337 328 319 312 306 301 299 298 299 303 309
Height
5680 5681 5681 5680 5679 5679 5679 5678 5678 5678 5678 5679 5681 5684 5688 5693 5698 5703 5708 5711 5716 5720 5725 5732 5735 5740 5745 5750 5755 5757 5763 5771 5779 5783 5788 5794 5799 5804 5808 5813 5817 5816 5820 5824 5828 5829 5832 5836 5837 5836 5840 5842 5843 5843
5671 5673 5674 5673 5673 5672 5672 5673 5673 5673 5673 5673 5675 5678 5681 5686 5691 5696 5701 5705 5709 5713 5719 5721 5726 5732 5737 5743 5748 5751 5757 5765 5770 5775 5779 5785 5790 5796 5801 5805 5809 5810 5813 5815 5820 5821 5820 5823 5824 5831 5835 5835 5837 5838
5661 5664 5665 5666 5666 5666 5666 5666 5667 5667 5668 5668 5669 5671 5675 5679 5684 5690 5694 5699 5703 5706 5710 5714 5718 5724 5728 5734 5739 5744 5747 5754 5758 5766 5772 5779 5782 5788 5789 5796 5800 5801 5805 5809 5810 5811 5810 5816 5820 5823 5826 5827 5829 5829
5650 5654 5656 5658 5659 5659 5660 5661 5661 5662 5662 5663 5663 5665 5669 5673 5678 5684 5688 5693 5697 5700 5703 5707 5711 5716 5720 5725 5730 5734 5739 5747 5753 5759 5762 5768 5772 5775 5784 5787 5789 5789 5793 5800 5804 5802 5803 5781 5808 5814 5817 5820 5820 5823
5639 5643 5647 5649 5651 5652 5653 5655 5656 5656 5657 5657 5658 5660 5664 5668 5673 5678 5683 5687 5691 5696 5698 5702 5705 5709 5712 5716 5721 5725 5730 5737 5742 5747 5751 5758 5762 5765 5772 5775 5783 5779 5785 5788 5789 5788 5790 5798 5796 5806 5807 5810 5811 5815
5628 5633 5637 5640 5642 5644 5646 5648 5650 5651 5651 5652 5653 5656 5659 5664 5669 5673 5679 5683 5687 5690 5693 5696 5700 5702 5706 5709 5712 5716 5720 5726 5731 5736 5742 5747 5750 5756 5761 5767 5773 5771 5770 5775 5781 5782 5786 5788 5792 5794 5797 5799 5803 5807
5617 5622 5626 5630 5634 5636 5639 5641 5644 5645 5646 5647 5649 5651 5655 5660 5665 5670 5676 5679 5683 5686 5689 5691 5694 5697 5699 5701 5705 5708 5711 5716 5721 5726 5731 5736 5739 5744 5749 5754 5757 5761 5763 5766 5773 5778 5779 5779 5779 5786 5790 5789 5791 5798
5605 5610 5615 5620 5625 5628 5631 5634 5637 5639 5641 5642 5644 5647 5651 5656 5661 5667 5671 5675 5679 5682 5686 5688 5690 5694 5695 5697 5699 5701 5705 5708 5712 5717 5722 5726 5730 5734 5740 5745 5747 5749 5751 5756 5762 5764 5766 5768 5772 5775 5779 5777 5780 5786
5591 5597 5604 5610 5615 5619 5623 5627 5630 5634 5636 5637 5640 5643 5647 5653 5658 5663 5667 5672 5676 5681 5683 5686 5688 5691 5692 5693 5696 5698 5700 5703 5706 5710 5714 5718 5722 5724 5728 5732 5736 5738 5741 5745 5750 5754 5757 5759 5760 5764 5768 5768 5769 5775
5575 5583 5591 5599 5605 5610 5615 5620 5624 5628 5630 5633 5636 5640 5644 5649 5655 5660 5665 5669 5673 5677 5680 5683 5687 5688 5689 5691 5693 5696 5697 5699 5701 5705 5707 5710 5714 5717 5719 5721 5726 5728 5731 5736 5740 5744 5744 5745 5745 5750 5755 5757 5760 5761
5562 5570 5579 5587 5595 5601 5607 5613 5618 5622 5625 5628 5632 5636 5641 5647 5652 5657 5662 5667 5671 5675 5678 5681 5684 5686 5687 5689 5692 5693 5695 5697 5699 5701 5704 5706 5708 5708 5711 5712 5718 5719 5721 5723 5726 5728 5730 5732 5735 5738 5739 5745 5747 5752
5551 5560 5569 5577 5585 5593 5601 5607 5613 5618 5622 5625 5629 5633 5638 5645 5651 5656 5660 5665 5669 5673 5676 5679 5681 5683 5684 5687 5689 5691 5693 5694 5696 5698 5699 5702 5702 5704 5705 5707 5708 5710 5712 5713 5715 5717 5719 5721 5723 5725 5727 5732 5734 5740
5542 5552 5561 5570 5579 5587 5596 5603 5608 5613 5618 5622 5626 5631 5637 5644 5650 5655 5659 5664 5667 5671 5674 5676 5678 5680 5682 5685 5686 5688 5690 5692 5693 5694 5696 5695 5697 5699 5699 5700 5701 5703 5704 5705 5706 5706 5708 5710 5712 5714 5718 5719 5724 5728
5535 5546 5555 5565 5574 5583 5592 5599 5605 5610 5615 5620 5624 5631 5637 5643 5649 5652 5657 5662 5666 5669 5671 5674 5677 5678 5680 5681 5684 5685 5687 5688 5689 5690 5690 5690 5691 5692 5693 5693 5694 5696 5696 5697 5697 5698 5698 5698 5699 5702 5706 5711 5712 5720
5531 5542 5551 5561 5572 5581 5589 5596 5602 5608 5613 5618 5624 5630 5636 5642 5647 5652 5657 5660 5663 5667 5670 5672 5674 5676 5678 5680 5681 5683 5684 5685 5685 5685 5685 5687 5687 5688 5687 5687 5687 5688 5687 5687 5686 5687 5686 5687 5688 5691 5695 5699 5705 5711
5531 5541 5551 5562 5571 5581 5588 5594 5600 5607 5612 5618 5625 5630 5636 5642 5646 5651 5654 5658 5661 5665 5668 5670 5672 5674 5675 5677 5679 5679 5681 5681 5682 5682 5683 5684 5683 5682 5682 5681 5680 5679 5678 5677 5676 5675 5676 5677 5679 5683 5688 5691 5695 5703
5536 5545 5555 5565 5574 5582 5588 5595 5601 5607 5613 5619 5625 5631 5636 5641 5645 5650 5654 5656 5659 5663 5665 5667 5669 5671 5673 5674 5676 5677 5678 5678 5679 5680 5680 5680 5678 5676 5674 5672 5671 5671 5670 5670 5669 5669 5669 5669 5671 5673 5671 5666 5670 5689
5543 5551 5560 5569 5576 5583 5590 5595 5602 5609 5614 5620 5626 5631 5637 5641 5646 5649 5652 5655 5659 5661 5664 5666 5668 5669 5670 5672 5673 5674 5675 5677 5678 5677 5676 5675 5672 5669 5666 5666 5667 5667 5668 5667 5666 5666 5666 5665 5665 5668 5669 5673 5678 5680
5551 5559 5567 5573 5580 5587 5593 5599 5605 5611 5616 5622 5627 5632 5636 5640 5644 5647 5651 5654 5657 5659 5661 5664 5666 5667 5668 5669 5671 5672 5674 5675 5674 5673 5672 5671 5670 5668 5667 5666 5665 5666 5667 5666 5666 5666 5666 5666 5667 5669 5672 5676 5679 5680
5560 5566 5572 5578 5584 5590 5597 5602 5607 5612 5618 5623 5627 5632 5637 5641 5645 5648 5652 5654 5656 5659 5660 5662 5663 5665 5666 5668 5670 5671 5672 5672 5671 5671 5670 5670 5670 5669 5668 5666 5666 5666 5667 5667 5667 5667 5666 5668 5670 5672 5674 5676 5678 5680
5567 5573 5578 5584 5589 5594 5600 5605 5610 5615 5619 5624 5629 5634 5638 5642 5645 5648 5651 5654 5656 5658 5660 5661 5662 5664 5666 5668 5669 5670 5670 5669 5669 5670 5670 5671 5672 5672 5671 5671 5670 5669 5667 5666 5667 5667 5669 5670 5671 5673 5674 5676 5678 5680
5575 5580 5586 5590 5596 5601 5606 5611 5615 5619 5624 5628 5633 5636 5640 5643 5646 5649 5651 5654 5656 5658 5659 5661 5663 5665 5667 5668 5668 5668 5669 5670 5670 5671 5670 5672 5673 5674 5674 5674 5674 5674 5672 5670 5670 5670 5671 5672 5673 5674 5676 5678 5679 5680
5585 5589 5594 5599 5603 5607 5613 5616 5620 5623 5627 5631 5634 5638 5641 5644 5646 5649 5652 5654 5657 5659 5660 5663 5665 5666 5667 5667 5668 5669 5670 5672 5672 5673 5673 5674 5675 5676 5677 5677 5677 5676 5676 5675 5674 5675 5675 5675 5676 5677 5678 5679 5679 5680
5595 5599 5603 5606 5609 5613 5617 5620 5623 5627 5630 5634 5637 5640 5643 5645 5648 5650 5652 5655 5658 5659 5662 5664 5666 5666 5666 5667 5670 5672 5673 5674 5675 5676 5676 5677 5678 5680 5680 5680 5679 5679 5678 5678 5677 5678 5678 5678 5679 5679 5680 5681 5682 5683
5605 5608 5610 5613 5616 5619 5621 5625 5628 5631 5634 5637 5639 5642 5644 5647 5649 5651 5653 5656 5659 5662 5664 5666 5667 5668 5668 5670 5673 5675 5676 5677 5678 5679 5679 5680 5681 5681 5682 5682 5683 5683 5683 5683 5683 5683 5683 5683 5684 5684 5684 5684 5685 5685
5612 5614 5617 5619 5622 5625 5627 5630 5633 5635 5638 5640 5642 5644 5646 5649 5651 5654 5656 5658 5661 5663 5665 5667 5668 5671 5672 5674 5677 5678 5679 5680 5681 5682 5684 5684 5685 5685 5686 5686 5687 5687 5687 5687 5687 5686 5686 5686 5686 5685 5685 5686 5686 5687
5619 5621 5623 5625 5628 5631 5633 5635 5638 5640 5641 5643 5645 5647 5650 5652 5654 5657 5658 5660 5662 5665 5668 5670 5673 5675 5677 5679 5681 5682 5684 5685 5685 5687 5688 5689 5689 5689 5690 5690 5689 5689 5689 5688 5688 5688 5687 5687 5687 5687 5687 5687 5688 5688
5626 5628 5630 5632 5634 5636 5637 5639 5641 5643 5645 5648 5650 5652 5653 5656 5659 5661 5662 5665 5668 5670 5673 5675 5677 5679 5681 5683 5685 5687 5688 5690 5690 5691 5692 5692 5692 5692 5692 5691 5691 5690 5690 5689 5688 5688 5687 5687 5686 5686 5686 5686 5686 5687
5632 5634 5635 5637 5639 5640 5642 5644 5646 5648 5650 5652 5655 5658 5660 5662 5665 5667 5670 5672 5674 5677 5679 5681 5683 5685 5687 5688 5690 5691 5693 5693 5693 5693 5693 5693 5693 5693 5692 5691 5690 5689 5688 5687 5687 5686 5685 5685 5684 5684 5684 5684 5684 5684
5638 5639 5641 5642 5645 5646 5648 5650 5652 5654 5657 5659 5662 5665 5667 5670 5672 5674 5676 5678 5681 5683 5685 5686 5688 5690 5691 5692 5693 5693 5694 5694 5694 5694 5694 5693 5692 5691 5690 5688 5687 5686 5685 5684 5684 5683 5683 5683 5682 5682 5682 5682 5681 5681
5643 5644 5646 5648 5650 5652 5654 5656 5658 5661 5664 5666 5669 5672 5674 5676 5678 5680 5682 5684 5685 5687 5689 5690 5691 5692 5693 5694 5694 5695 5695 5694 5694 5693 5692 5691 5690 5689 5687 5685 5684 5682 5681 5680 5680 5680 5680 5680 5680 5680 5679 5679 5678 5677
5650 5651 5653 5655 5656 5658 5660 5662 5665 5668 5670 5673 5675 5677 5679 5681 5682 5684 5686 5687 5688 5690 5691 5692 5693 5693 5694 5694 5694 5694 5694 5693 5692 5692 5691 5690 5689 5687 5686 5684 5683 5682 5681 5680 5679 5679 5678 5678 5678 5677 5677 5676 5674 5673
5657 5659 5661 5662 5664 5665 5666 5668 5670 5673 5675 5678 5679 5681 5683 5685 5686 5688 5689 5690 5691 5691 5692 5693 5693 5694 5694 5693 5693 5692 5692 5691 5691 5690 5690 5689 5688 5687 5685 5684 5683 5682 5681 5680 5679 5678 5678 5677 5675 5674 5673 5671 5670 5667